Weather History for Medicine Lodge, KS

Change the Weather History Date:

Wednesday, January 22, 2014

  Actual Average Record
Temperature  
Mean Temperature 32 °F 34 °F  
Max Temperature 45 °F 46 °F 82 °F (1967)
Min Temperature 18 °F 22 °F -9 °F (1930)
Degree Days  
Heating Degree Days 33 31  
Month to date heating degree days 680 701  
Since 1 July heating degree days 2678 2500  
Cooling Degree Days 0 0  
Month to date cooling degree days 0 0  
Year to date cooling degree days 0 0  
Moisture  
Dew Point 18 °F    
Average Humidity 58    
Maximum Humidity 74    
Minimum Humidity 41    
Precipitation  
Precipitation 0.00 in 0.03 in 0.30 in (1995)
Month to date precipitation 0.12 0.44  
Year to date precipitation 0.12 0.44  
Snow  
Snow 0.00 in 0.20 in - ()
Month to date snowfall 0.0 1.9  
Since 1 July snowfall 6.5 4.8  
Snow Depth 0.00 in    
Sea Level Pressure  
Sea Level Pressure 30.24 in    
Wind  
Wind Speed 12 mph (North)    
Max Wind Speed 31 mph    
Max Gust Speed 40 mph    
T = Trace of Precipitation, MM = Missing Value Source: NWS Daily Summary

Daily Weather History Graph

Daily Weather History Graph

Search for Another Location

Airport:

Trip Planner

Search our weather history database for the weather conditions in past years. The results will help you decide how hot, cold, wet, or windy it might be!

Date:

Astronomy

Jan. 22, 2014 Rise Set
Actual Time 7:44 AM CST 5:47 PM CST
Civil Twilight 7:16 AM CST 6:15 PM CST
Nautical Twilight 6:44 AM CST 6:47 PM CST
Astronomical Twilight 6:13 AM CST 7:18 PM CST
Moon No Moon Rise 10:54 AM CST (1/22)
Length of Visible Light 10h 59m
Length of Day
10h 03m
Waning Gibbous, 65% of the Moon is Illuminated
Jan 22
Waning Gibbous
Jan 23
Last Quarter
Jan 30
New
Feb 6
First Quarter
Feb 14
Full

Hourly Weather History & Observations

Time (CST) Temp. Windchill Dew Point Humidity Pressure Visibility Wind Dir Wind Speed Gust Speed Precip Events Conditions
12:56 AM 18.0 °F 11.1 °F 10.9 °F 74% 30.16 in - NNW 4.6 mph - N/A   Unknown
1:56 AM 18.0 °F 8.7 °F 10.9 °F 74% 30.14 in - North 6.9 mph - N/A   Unknown
2:56 AM 19.0 °F 9.0 °F 12.0 °F 74% 30.17 in - NNW 8.1 mph - N/A   Unknown
3:56 AM 23.0 °F 15.8 °F 15.1 °F 72% 30.17 in - NW 5.8 mph - N/A   Unknown
4:56 AM 26.1 °F 18.4 °F 17.1 °F 69% 30.18 in - NNW 6.9 mph - N/A   Unknown
5:56 AM 25.0 °F 19.3 °F 17.1 °F 72% 30.18 in - North 4.6 mph - N/A   Unknown
6:56 AM 26.1 °F 19.4 °F 18.0 °F 71% 30.20 in - NW 5.8 mph - N/A   Unknown
7:56 AM 25.0 °F 17.1 °F 18.0 °F 75% 30.25 in - NNW 6.9 mph - N/A   Unknown
8:56 AM 30.0 °F 24.1 °F 19.9 °F 66% 30.26 in - NNW 5.8 mph - N/A   Unknown
9:56 AM 39.0 °F 30.6 °F 23.0 °F 53% 30.27 in - NNE 15.0 mph - N/A   Unknown
10:56 AM 41.0 °F 32.5 °F 21.9 °F 47% 30.26 in - NNE 17.3 mph - N/A   Unknown
11:56 AM 43.0 °F 35.4 °F 23.0 °F 45% 30.25 in - NE 16.1 mph 20.7 mph N/A   Unknown
12:56 PM 44.1 °F 38.1 °F 23.0 °F 43% 30.21 in - NNE 11.5 mph - N/A   Unknown
1:56 PM 44.1 °F 36.8 °F 23.0 °F 43% 30.18 in - NNE 16.1 mph 20.7 mph N/A   Unknown
2:56 PM 43.0 °F 36.4 °F 21.9 °F 43% 30.18 in - NNE 12.7 mph - N/A   Unknown
3:56 PM 43.0 °F 36.8 °F 21.0 °F 42% 30.18 in - NNE 11.5 mph 20.7 mph N/A   Unknown
4:56 PM 39.9 °F 32.5 °F 21.0 °F 47% 30.20 in - NE 12.7 mph - N/A   Unknown
5:56 PM 37.9 °F 32.1 °F 19.9 °F 48% 30.23 in - NE 8.1 mph - N/A   Unknown
6:56 PM 34.0 °F 28.0 °F 19.9 °F 56% 30.27 in - NE 6.9 mph - N/A   Unknown
7:56 PM 32.0 °F 25.6 °F 19.9 °F 61% 30.29 in - NNE 6.9 mph - N/A   Unknown
8:56 PM 35.1 °F 24.8 °F 19.0 °F 52% 30.32 in - NE 17.3 mph 25.3 mph N/A   Unknown
9:56 PM 28.0 °F 13.9 °F 14.0 °F 56% 30.36 in - NNE 23.0 mph 34.5 mph N/A   Unknown
10:56 PM 24.1 °F 6.9 °F 9.0 °F 53% 30.40 in - NNE 29.9 mph 40.3 mph N/A   Unknown
11:56 PM 19.9 °F 2.2 °F 7.0 °F 57% 30.44 in - NNE 26.5 mph 38.0 mph N/A   Unknown